This is the latest recevied weather packets stored in our database for station/object VR2OT-10. If no packets are shown the sender has not sent any weather packets the latest 10 day(s).
| Time | Temp. | Humidity | Pressure | Rain* | Wind** | Luminosity | Snow |
|---|---|---|---|---|---|---|---|
| 1787431234 | 27.78° C | 84% | 1000.7 hPa | - | 1.34 m/s, 270° | - | - |
| 1787430332 | 28.89° C | 86% | 1000.5 hPa | - | 1.34 m/s, 315° | - | - |
| 1787429434 | 28.33° C | 86% | 1000.5 hPa | - | 2.24 m/s, 270° | - | - |
| 1787428532 | 28.33° C | 85% | 1000.3 hPa | - | 3.13 m/s, 270° | - | - |
| 1787426733 | 28.33° C | 86% | 1000.7 hPa | - | 1.79 m/s, 315° | - | - |
| 1787425834 | 27.78° C | 88% | 1001 hPa | - | 2.68 m/s, 270° | - | - |
| 1787424932 | 27.78° C | 87% | 1001.1 hPa | - | 3.13 m/s, 270° | - | - |
| 1787424034 | 27.78° C | 84% | 1001 hPa | - | 3.58 m/s, 270° | - | - |
| 1787423133 | 28.89° C | 84% | 1001.1 hPa | - | 3.58 m/s, 270° | - | - |
| 1787422232 | 28.89° C | 85% | 1001 hPa | - | 3.13 m/s, 270° | - | - |
| 1787421333 | 28.89° C | 85% | 1001.2 hPa | - | 3.13 m/s, 270° | - | - |
| 1787420433 | 28.89° C | 85% | 1001.3 hPa | - | 3.58 m/s, 270° | - | - |
| 1787419532 | 28.89° C | 84% | 1001.2 hPa | - | 4.92 m/s, 270° | - | - |
| 1787418634 | 28.89° C | 85% | 1001.2 hPa | - | 4.02 m/s, 270° | - | - |
| 1787417733 | 28.89° C | 83% | 1001.5 hPa | - | 3.13 m/s, 270° | - | - |
| 1787416831 | 28.89° C | 84% | 1001.5 hPa | - | 3.13 m/s, 270° | - | - |
| 1787415933 | 28.89° C | 80% | 1001.7 hPa | - | 3.13 m/s, 270° | - | - |
| 1787415034 | 28.89° C | 81% | 1001.7 hPa | - | 3.13 m/s, 270° | - | - |
| 1787414132 | 28.89° C | 80% | 1001.8 hPa | - | 3.13 m/s, 270° | - | - |
| 1787413234 | 28.89° C | 80% | 1002 hPa | - | 2.24 m/s, 225° | - | - |
| 1787412333 | 28.89° C | 81% | 1002.1 hPa | - | 1.79 m/s, 270° | - | - |
| 1787411432 | 28.89° C | 80% | 1002.1 hPa | - | 1.79 m/s, 225° | - | - |
| 1787409634 | 28.89° C | 80% | 1002.2 hPa | - | 3.13 m/s, 270° | - | - |
| 1787408732 | 28.89° C | 81% | 1002.6 hPa | - | 2.68 m/s, 270° | - | - |
| 1787407834 | 28.89° C | 81% | 1002.5 hPa | - | 2.24 m/s, 225° | - | - |
* Rain since midnight (hover to see other rain measurements)
** Current wind speed in m/s (hover to see current wind gust speed)